Location: Pine Mountain Observatory
(43.7910°N, 120.9377°W)
Time: 08:30:11
(UTC-07:00)

APEX - Visible Passes

Search period start: 26 May 2018 00:00
Search period end: 05 June 2018 00:00
Orbit: 334 x 1161 km, 69.9° (Epoch: 25 May)

Date Brightness Start Highest point End Pass type
(mag) Time Alt. Az. Time Alt. Az. Time Alt. Az.
26 May 5.7 03:56:33 10° N 03:58:25 16° NE 04:00:17 10° E visible
28 May 2.9 04:10:54 10° NNW 04:13:36 59° ENE 04:16:23 10° SE visible
29 May 5.0 03:27:50 10° N 03:30:05 22° ENE 03:32:21 10° ESE visible
30 May 6.0 02:46:02 10° NE 02:46:25 10° NE 02:46:49 10° ENE visible
30 May 3.3 04:26:05 10° NW 04:28:31 29° WSW 04:31:06 10° S visible
31 May 2.3 03:42:24 10° NNW 03:45:07 90° NW 03:48:02 10° SSE visible
01 Jun 4.2 02:59:09 10° N 03:01:39 30° ENE 03:04:01 11° ESE visible
02 Jun 5.5 02:16:31 10° NNE 02:18:02 14° NE 02:19:34 10° E visible
02 Jun 3.8 03:57:47 10° WNW 04:00:00 21° WSW 04:00:00 21° WSW visible
03 Jun 2.4 03:13:52 10° NW 03:16:30 59° WSW 03:16:30 59° WSW visible
04 Jun 3.4 02:30:28 10° NNW 02:33:07 44° ENE 02:33:11 44° ENE visible
